sat.trackr.live / text

‹ back to catalog

USA 167

NORAD 27691 · 2003-008A

PAYLOAD ACTIVE UNKNOWN

§ Identity

Operator
Country
US
Launch date
2003-03-11
Launch site
AFETR
Launch vehicle
Mass (kg)
RCS (m²)

Purposes: comms

External: N2YO · Heavens-Above · Gunter

§ Orbital elements

Epoch: 2026-09-14T12:04:15.345696Z

Period
1,436.07 min
Inclination
11.1357°
Eccentricity
0.0003040
Mean motion
1.00273870 rev/d
Perigee alt
35,773.2 km
Apogee alt
35,798.8 km
Semi-major
42,164.1 km
B*
0.0000e+0
RAAN
42.5821°
Arg perigee
290.4916°
Mean anomaly
79.3950°
Rev number
767

§ Raw data

USA 1671 27691U 03008A   26257.50295539 -.00000001  00000+0  00000+0 0  99962 27691  11.1357  42.5821 0003040 290.4916  79.3950  1.00273870  7676

JSON: /api/v1/satellites/27691 · /tle

For live sub-satellite position, see the globe view (requires WebGL).

§ Visibility from observer

Set your observer location to see the next 7 days of passes ≥ 10°. The values pass through the URL so the page stays shareable.

No JS? Fill the form by hand. The geolocation button needs JavaScript.